Regional Weather Roundup
Issued by NWS

Home | Current Version | Previous Version | Graphics & Text | Print | Product List | Glossary On
Versions: 1 2 3 4 5 6 7 8 9 10 11 12 13 14 15 16 17 18 19 20 21 22 23 24 25 26 27 28 29 30 31 32 33 34 35 36 37 38 39 40 41 42 43 44 45 46 47 48 49 50
000
ASUS43 KOAX 011002
RWRNE

WEATHER ROUNDUP FOR NEBRASKA
NATIONAL WEATHER SERVICE OMAHA NE
500 AM CDT TUE SEP 01 2015

NOTES: SATELLITE DATA IS BEING USED TO AUGMENT CLOUD COVER ABOVE
       12000 FEET.
       "FAIR" INDICATES FEW OR NO CLOUDS BELOW 12,000 FEET WITH NO
       SIGNIFICANT WEATHER AND/OR OBSTRUCTIONS TO VISIBILITY.

  * THESE STATIONS DO NOT REPORT WEATHER SUCH AS RAIN...SNOW OR FOG.

NEZ001>004-019>022-054>056-011100-
NEBRASKA PANHANDLE

CITY           SKY/WX    TMP DP  RH WIND       PRES   REMARKS
SCOTTSBLUFF    PTCLDY    58  54  86 CALM      30.00R
ALLIANCE       PTCLDY    60  52  74 W3        29.97F
CHADRON        PTCLDY    62  50  64 W6        29.91F
KIMBALL        PTCLDY    55  50  82 W7        30.04S
SIDNEY         MOCLDY    59  53  80 NW9       30.02F
$$

NEZ057>060-069>072-079>082-011100-
SOUTHWEST NEBRASKA

CITY           SKY/WX    TMP DP  RH WIND       PRES   REMARKS
NORTH PLATTE   CLOUDY    68  61  78 NW7       29.92R
IMPERIAL       MOCLDY    64  60  87 W12       29.95R
LEXINGTON      CLOUDY    70  58  66 SW7       29.92R
MCCOOK         CLOUDY    69  64  84 CALM      29.91R
$$

NEZ005>010-023>029-035>040-094-011100-
NORTH CENTRAL NEBRASKA

CITY           SKY/WX    TMP DP  RH WIND       PRES   REMARKS
VALENTINE      CLOUDY    60  58  92 CALM      29.91F
AINSWORTH      CLOUDY    66  64  94 CALM      29.90F
BROKEN BOW     CLOUDY    67  64  90 CALM      29.91R FOG
ORD            MOCLDY    67  64  90 CALM      29.89R
$$

NEZ041-046>049-061>064-073>077-083>087-011100-
SOUTH CENTRAL NEBRASKA

CITY           SKY/WX    TMP DP  RH WIND       PRES   REMARKS
GRAND ISLAND   CLOUDY    70  61  73 S12       29.91S
AURORA         MOCLDY    68  65  88 S8        29.91R
HASTINGS       MOCLDY    68  59  73 S7        29.92R
KEARNEY *      CLOUDY    72  55  56 S14       29.92R
YORK           PTCLDY    66  64  94 S8        29.92R
$$

NEZ011>018-030>034-042>045-011100-
NORTHEAST NEBRASKA

CITY           SKY/WX    TMP DP  RH WIND       PRES   REMARKS
NORFOLK        PTCLDY    70  66  87 S12       29.88F
ALBION         MOCLDY    67  64  89 SE7       29.90S
BLAIR          CLEAR     70  65  85 S9        29.92S
COLUMBUS *     PTCLDY    70  61  73 S6        29.90S
FREMONT        CLEAR     71  66  86 CALM      29.91S
TEKAMAH        CLEAR     68  66  93 SE8       29.90S
$$

NEZ050>053-065>068-078-088>093-011100-
SOUTHEAST NEBRASKA

CITY           SKY/WX    TMP DP  RH WIND       PRES   REMARKS
LINCOLN        CLEAR     71  66  84 S10       29.92S
OMAHA EPPLEY   CLEAR     70  68  93 S8        29.92F
BEATRICE       CLEAR     70  66  88 S7        29.95R
FALLS CITY     CLEAR     72  68  87 S8        29.95S
NEBRASKA CITY  CLEAR     70  66  88 S9        29.95S
PLATTSMOUTH    PTCLDY    70  66  86 CALM      29.93S
$$

NEZ044-045-051>053-067-011100-
OMAHA AREA

CITY           SKY/WX    TMP DP  RH WIND       PRES   REMARKS
OMAHA EPPLEY   CLEAR     70  68  93 S8        29.92F
BLAIR          CLEAR     70  65  85 S9        29.92S
FREMONT        CLEAR     71  66  86 CALM      29.91S
OFFUTT AFB     CLEAR     67  67  99 E7        29.92S
PLATTSMOUTH    PTCLDY    70  66  86 CALM      29.93S
WAHOO          FAIR      65  64  94 SE3       29.91S
$$




USA.gov is the U.S. government's official web portal to all federal, state and local government web resources and services.